Weather History for CYRB - October, 2013

Change the Weather History Date:

Saturday, October 19, 2013

  Actual Average Record
Temperature  
Mean Temperature 22 °F -  
Max Temperature 26 °F 10 °F 32 °F (2003)
Min Temperature 18 °F 2 °F -7 °F (1999)
Degree Days  
Heating Degree Days 43    
Moisture  
Dew Point 19 °F    
Average Humidity 81    
Maximum Humidity 86    
Minimum Humidity 72    
Precipitation  
Precipitation 0.00 in - - ()
Sea Level Pressure  
Sea Level Pressure 30.00 in    
Wind  
Wind Speed 12 mph ()    
Max Wind Speed 26 mph    
Max Gust Speed -    
Visibility 14.0 miles    
Events Snow    
Averages and records for this station are not official NWS values.
T = Trace of Precipitation, MM = Missing Value Source: Averaged Metar Reports

Daily Weather History Graph

Daily Weather History Graph

Search for Another Location

Airport or City:

Trip Planner

Search our weather history database for the weather conditions in past years. The results will help you decide how hot, cold, wet, or windy it might be!

Date:

Astronomy

Oct. 19, 2013 Rise Set
Actual Time 9:32 AM CDT 4:35 PM CDT
Civil Twilight 8:03 AM CDT 6:03 PM CDT
Nautical Twilight 6:30 AM CDT 7:35 PM CDT
Astronomical Twilight 4:54 AM CDT 9:10 PM CDT
Moon 3:30 PM CDT (10/19) 11:33 AM CDT (10/19)
Length of Visible Light 10h 00m
Length of Day
7h 02m
Waxing Gibbous, 99% of the Moon is Illuminated
Oct 19
Waxing Gibbous
Oct 26
Last Quarter
Nov 3
New
Nov 9
First Quarter
Nov 17
Full

Hourly Weather History & Observations

Time (CDT) Temp. Windchill Dew Point Humidity Pressure Visibility Wind Dir Wind Speed Gust Speed Precip Events Conditions
12:00 AM 24.8 °F 15.3 °F 19.4 °F 80% 29.94 in 15.0 mi ENE 9.2 mph - N/A Snow Light Snow
1:00 AM 25 °F - 20 °F 72% 29.95 in 15 mi ENE 8.1 mph - - Snow Light Snow
1:00 AM 24.8 °F 16.1 °F 19.4 °F 80% 29.95 in 15.0 mi ENE 8.1 mph - N/A Snow Light Snow
2:00 AM 24.8 °F 12.9 °F 19.4 °F 80% 29.95 in 15.0 mi ENE 13.8 mph - N/A Snow Light Snow
3:00 AM 24.8 °F 14.6 °F 19.4 °F 80% 29.96 in 15.0 mi South 10.4 mph - N/A Snow Light Snow
4:00 AM 23.0 °F - 17.6 °F 80% 29.96 in 15.0 mi North 2.3 mph - N/A Snow Light Snow
5:00 AM 24.8 °F 20.5 °F 17.6 °F 74% 29.97 in 15.0 mi SE 3.5 mph - N/A   Scattered Clouds
6:00 AM 19.4 °F 1.4 °F 15.8 °F 86% 29.97 in 15.0 mi ENE 26.5 mph - N/A Snow Low Drifting Snow
7:00 AM 20 °F - 15 °F 75% 29.96 in 15 mi ENE 19.6 mph - - Snow Low Drifting Snow
7:00 AM 21.2 °F 6.0 °F 15.8 °F 80% 29.96 in 15.0 mi ENE 19.6 mph - N/A Snow Low Drifting Snow
8:00 AM 21.2 °F 4.5 °F 15.8 °F 80% 29.97 in 15.0 mi ENE 24.2 mph - N/A Snow Low Drifting Snow
9:00 AM 23.0 °F 7.2 °F 17.6 °F 80% 29.98 in 15.0 mi ENE 23.0 mph - N/A Snow Low Drifting Snow
9:42 AM - - - N/A% - 9.0 mi ENE 21.9 mph - N/A   Unknown
10:00 AM 23.0 °F 9.2 °F 19.4 °F 86% 29.99 in 9.0 mi ENE 17.3 mph - N/A Snow Light Snow
11:00 AM 24.8 °F 12.4 °F 19.4 °F 80% 30.00 in 8.0 mi ENE 15.0 mph - N/A Snow Light Snow
12:00 PM 24.8 °F 12.4 °F 21.2 °F 86% 30.00 in 5.0 mi NE 15.0 mph - N/A Snow Light Snow
1:00 PM 23 °F - 19 °F 77% 30.00 in 15 mi ENE 17.3 mph - - Snow Light Snow
1:00 PM 23.0 °F 9.2 °F 19.4 °F 86% 30.00 in 15.0 mi ENE 17.3 mph - N/A Snow Light Snow
1:12 PM - - - N/A% - 15.0 mi ENE 17.3 mph - N/A   Unknown
2:00 PM 21.2 °F 8.3 °F 17.6 °F 86% 30.02 in 15.0 mi East 13.8 mph - N/A   Mostly Cloudy
3:00 PM 23.0 °F 11.1 °F 17.6 °F 80% 30.03 in 15.0 mi East 12.7 mph - N/A   Overcast
4:00 PM 23.0 °F 11.1 °F 17.6 °F 80% 30.04 in 15.0 mi ENE 12.7 mph - N/A   Mostly Cloudy
5:00 PM 23.0 °F 11.7 °F 19.4 °F 86% 30.05 in 15.0 mi ENE 11.5 mph - N/A   Overcast
6:00 PM 24.8 °F 14.6 °F 21.2 °F 86% 30.06 in 15.0 mi East 10.4 mph - N/A   Overcast
7:00 PM 24 °F - 20 °F 78% 30.06 in 15 mi ENE 9.2 mph - -   Partly Cloudy
7:00 PM 24.8 °F 15.3 °F 19.4 °F 80% 30.06 in 15.0 mi ENE 9.2 mph - N/A   Overcast
8:00 PM 24.8 °F 15.3 °F 19.4 °F 80% 30.06 in 15.0 mi ENE 9.2 mph - N/A Snow Light Snow
9:00 PM 24.8 °F 16.1 °F 19.4 °F 80% 30.06 in 15.0 mi NE 8.1 mph - N/A Snow Light Snow
10:00 PM 26.6 °F 16.2 °F 21.2 °F 80% 30.06 in 15.0 mi East 11.5 mph - N/A Snow Light Snow
10:35 PM - - - N/A% - 15.0 mi ENE 11.5 mph - N/A   Mostly Cloudy
11:00 PM 21.2 °F 10.1 °F 17.6 °F 86% 30.07 in 15.0 mi ENE 10.4 mph - N/A   Mostly Cloudy
11:41 PM - - - N/A% - 12.0 mi East 11.5 mph - N/A   Overcast